{"data":{"norad_id":62531,"intl_designator":"2025-004W","name":"STARLINK-32785","alt_names":[],"object_type":"PAYLOAD","status":"ACTIVE","operator":null,"country":"US","launch_date":"2025-01-08","launch_site_code":"AFETR","launch_vehicle":null,"mission":null,"orbit_class":"UNKNOWN","rcs_meters":null,"size_class":null,"mass_kg":null,"dimensions":null,"purposes":["comms"],"wikipedia_slug":null,"has_3d_model":false,"image_url":null,"decayed_at":null,"tle_current":{"epoch":"2026-05-24T17:13:28.681248Z","epoch_age_seconds":102732,"freshness":"FRESH","line1":"1 62531U 25004W   26144.71769307  .00015919  00000+0  58641-3 0  9996","line2":"2 62531  42.9986 150.7230 0001643 270.7949  89.2714 15.27598081 78087","mean_motion":15.27598081,"eccentricity":0.0001643,"inclination_deg":42.9986,"raan_deg":150.723,"arg_perigee_deg":270.7949,"mean_anomaly_deg":89.2714,"bstar":0.00058641,"rev_number":7808,"period_min":94.26563295087,"perigee_km":481.86767157477,"apogee_km":484.12223953537,"semimajor_km":6861.1319555551,"source":"CELESTRAK","updated_at":"2026-05-25T13:38:19.706036Z"}}}